Content
SEND FEEDBACK

Daily
Averages
Monthly
Summary
United States of America

CHICAGO, ILLINOIS


Home > North America > United States > Illinois
Elevation: 674 feet     Latitude: 41 59N     Longitude: 087 54W

WEATHER
 
SELECT A DAY
Number of Records: 199,667;   Date Range: 7/8/95 - 12/21/14
 
SHARE

PRINT THIS DATA

[ ← Previous Day ]
WEATHER ALMANAC - MARCH 3, 2013
[ Next Day → ]
[ °C ]   °F
Weather ElementAverageHighLow
Temperature22.6 °F32 °F (1:52 pm)12.9 °F (6:52 am)
Dewpoint10.9 °F15.1 °F (9:52 pm)8.1 °F (4:52 am)
Humidity63.1 %84 % (6:52 am)37 % (2:52 pm)
Barometer30.15 in30.19 in (6:52 am)30.12 in (1:52 pm)
Wind Speed3.7 mph9.2 mph (8:52 am)
Weather ElementAverage
Visibility10 mi
Wind DirectionSSE (168.2 °)

Weather ElementTotal
Precipitation---
Heating Degree Days42.6 (Base 65)
Averaged from 22 records on March 3, 2013
WEATHER CONDITIONS BREAKOUT
WIND DIRECTION BREAKOUT
WEATHER BY HOUR - MARCH 3, 2013
[ °C ]   °F
Local TimeTemperatureDewpointHumidityBarometerVisibilityWind DirectionWind SpeedGust SpeedPrecipitationEventsConditions
1:52 AM14.0 °F9.0 °F80 %30.17 in10.0 miNNW (330°)3.5 mphClear
2:52 AM14.0 °F9.0 °F80 %30.16 in10.0 miNNW (330°)3.5 mphClear
3:52 AM14.0 °F9.0 °F80 %30.15 in10.0 miCalmMostly Cloudy
4:52 AM14.0 °F8.1 °F77 %30.16 in10.0 miCalmClear
6:52 AM12.9 °F9.0 °F84 %30.19 in10.0 miCalmClear
7:52 AM18.0 °F9.0 °F68 %30.19 in10.0 miNW (320°)5.8 mphClear
8:52 AM23.0 °F9.0 °F55 %30.18 in10.0 miNW (310°)9.2 mphClear
9:52 AM25.0 °F10.0 °F53 %30.17 in10.0 miNNW (340°)6.9 mphClear
10:52 AM27.0 °F10.9 °F51 %30.17 in10.0 miNNW (330°)8.1 mphClear
11:52 AM28.9 °F10.0 °F45 %30.15 in10.0 miNNW (340°)5.8 mphClear
12:52 PM30.0 °F9.0 °F41 %30.13 in10.0 miNNW (340°)6.9 mphClear
1:52 PM32.0 °F9.0 °F38 %30.12 in10.0 miNW (320°)6.9 mphClear
2:52 PM32.0 °F8.1 °F37 %30.12 in10.0 miNW (310°)8.1 mphClear
3:52 PM30.9 °F9.0 °F40 %30.12 in10.0 miNW (320°)4.6 mphClear
4:52 PM30.0 °F14.0 °F51 %30.12 in10.0 miENE (60°)5.8 mphClear
5:52 PM27.0 °F14.0 °F58 %30.13 in10.0 miNE (50°)6.9 mphClear
6:52 PM25.0 °F14.0 °F63 %30.14 in10.0 miCalmClear
7:52 PM23.0 °F14.0 °F68 %30.14 in10.0 miCalmClear
8:52 PM21.0 °F14.0 °F74 %30.14 in10.0 miCalmClear
9:52 PM19.9 °F15.1 °F81 %30.15 in10.0 miCalmClear
10:52 PM18.0 °F12.9 °F81 %30.15 in10.0 miCalmClear
11:52 PM17.1 °F12.9 °F84 %30.14 in10.0 miCalmClear
Hourly data recorded from KPWK, located miles away from Chicago, Illinois







STORIES FROM OUR PARTNERS